Find STARLINK-38054

NORAD ID: 799501184 Int'l Des: 2026-160G Constellation: starlink operational

現在のビュー

3D地球を読み込み中...

About STARLINK-38054

STARLINK-38054 (NORAD 799501184) is a starlink constellation satellite launched Jul 9, 2026

STARLINK-38054について

説明を読み込み中...

次回通過

Passes for default location (London). Set your location on the main map for personalized predictions.

高度履歴

Loading altitude history...

軌道要素

1 99999C 2026160G 26195.35534721 .00364510 00000-0 478230-4 0 1950
2 99999 70.0027 28.7153 0009760 259.3106 125.0582 16.06368905 15
Epoch: Jul 14, 2026 • Age: 9 hours